User: anonymous   Login
Location: Unspecified
(0.0000°N, 0.0000°E)
Time: 05:44:55
(UTC+00:00)
Language:

TSUBAME - Orbit

View from above orbital plane
View from above orbital plane
View from above satellite
View from above satellite

Ground track
Ground track

The orbit data is extracted from the following two-line orbital elements,

1 40302U 14070E   18350.78272267  .00000452  00000-0  25539-4 0  9998
2 40302  97.3125  51.0185 0039476  16.8661  54.3185 15.17382028227368
Epoch (UTC): 16 December 2018 18:47:07
Eccentricity: 0.0039476
inclination: 97.3125°
perigee height: 486 km
apogee height: 541 km
right ascension of ascending node: 51.0185°
argument of perigee: 16.8661°
revolutions per day: 15.17382028
mean anomaly at epoch: 54.3185°
orbit number at epoch: 22736

The dashed part of the orbit path shows where the satellite is in the earth's shadow,  

DLR